Date String (YYYY-MM-DD hh:mm:ss) UTC,Instrument flags,Ambient pressure (hPa),Sample flow (lpm),Bypass flow (lpm),Sample temperature (°C),Ambient temperature (°C),ASC tube jacket temperature (°C),LED temperature (°C),Box temperature (°C),Sample RH (%),Span deviation,Mass concentration (μg/m³),Mass concentration (μg/m³),Mass concentration (μg/m³)
DateTimeUTC,F1_M11,P_M11,Q1_M11,Q2_M11,T1_M11,T2_M11,T3_M11,T4_M11,T5_M11,U1_M11,ZSPAN_M11,X0_M11,X2_M11,X1_M11
2022-01-30 15:00:00,,0826.1,5.01,0.00,22.6,22.7,00.0,31.4,24.4,04.0,0000.0,0001.02,0000.80,0000.69
2022-01-30 15:01:00,,0826.1,4.99,0.00,22.6,22.6,00.0,31.4,24.4,04.0,0000.0,0001.00,0000.79,0000.69
2022-01-30 15:02:00,,0826.1,4.99,0.00,22.6,22.5,00.0,31.5,24.4,04.0,0000.0,0000.98,0000.79,0000.70
2022-01-30 15:03:00,,0826.1,4.99,0.00,22.6,22.4,00.0,31.5,24.4,03.9,0000.0,0000.95,0000.78,0000.70
2022-01-30 15:04:00,,0826.1,5.01,0.00,22.6,22.3,00.0,31.5,24.4,03.9,0000.0,0000.93,0000.77,0000.70
2022-01-30 15:05:00,,0826.1,4.99,0.00,22.6,22.3,00.0,31.5,24.4,03.8,0000.0,0000.89,0000.75,0000.70
2022-01-30 15:06:00,,0826.1,4.99,0.00,22.6,22.2,00.0,31.5,24.4,03.8,0000.0,0000.84,0000.72,0000.70
2022-01-30 15:07:00,,0826.1,5.01,0.00,22.6,22.2,00.0,31.5,24.4,03.9,0000.0,0000.85,0000.73,0000.70
2022-01-30 15:08:00,,0826.1,4.98,0.00,22.6,22.1,00.0,31.5,24.4,03.8,0000.0,0000.86,0000.73,0000.70
2022-01-30 15:09:00,,0826.1,5.01,0.00,22.6,22.1,00.0,31.5,24.4,03.8,0000.0,0000.88,0000.74,0000.70
2022-01-30 15:10:00,,0826.1,5.01,0.00,22.6,22.1,00.0,31.5,24.4,03.8,0000.0,0000.88,0000.75,0000.71
2022-01-30 15:11:00,,0826.1,4.99,0.00,22.6,22.1,00.0,31.6,24.4,03.8,0000.0,0000.89,0000.76,0000.71
2022-01-30 15:12:00,,0826.2,5.01,0.00,22.6,22.1,00.0,31.6,24.4,03.8,0000.0,0000.89,0000.76,0000.72
2022-01-30 15:13:00,,0826.2,5.01,0.00,22.6,22.1,00.0,31.6,24.4,03.8,0000.0,0000.87,0000.75,0000.71
2022-01-30 15:14:00,,0826.1,4.99,0.00,22.7,22.1,00.0,31.6,24.4,03.8,0000.0,0000.85,0000.74,0000.71
2022-01-30 15:15:00,,0826.1,5.02,0.00,22.7,22.1,00.0,31.6,24.4,03.8,0000.0,0000.87,0000.75,0000.71
2022-01-30 15:16:00,,0826.1,4.98,0.00,22.7,22.1,00.0,31.6,24.5,03.8,0000.0,0000.91,0000.77,0000.72
2022-01-30 15:17:00,,0826.2,5.01,0.00,22.7,22.1,00.0,31.6,24.4,03.7,0000.0,0000.90,0000.77,0000.71
2022-01-30 15:18:00,,0826.2,4.99,0.00,22.7,22.1,00.0,31.6,24.5,03.7,0000.0,0000.90,0000.77,0000.71
2022-01-30 15:19:00,,0826.2,5.01,0.00,22.7,22.1,00.0,31.6,24.4,04.3,0000.0,0000.89,0000.76,0000.71
2022-01-30 15:20:00,,0826.1,4.99,0.00,22.7,22.1,00.0,31.6,24.4,04.3,0000.0,0000.90,0000.77,0000.72
2022-01-30 15:21:00,,0826.1,5.02,0.00,22.7,22.1,00.0,31.6,24.4,03.8,0000.0,0000.88,0000.76,0000.71
2022-01-30 15:22:00,,0826.1,4.98,0.00,22.7,22.1,00.0,31.6,24.4,03.6,0000.0,0000.89,0000.76,0000.70
2022-01-30 15:23:00,,0826.1,5.01,0.00,22.7,22.1,00.0,31.6,24.4,03.5,0000.0,0001.23,0000.76,0000.70
2022-01-30 15:24:00,,0826.0,4.99,0.00,22.7,22.1,00.0,31.6,24.4,03.5,0000.0,0001.30,0000.76,0000.70
2022-01-30 15:25:00,,0826.0,5.01,0.00,22.7,22.1,00.0,31.6,24.5,03.5,0000.0,0001.33,0000.78,0000.70
2022-01-30 15:26:00,,0826.1,5.00,0.00,22.7,22.1,00.0,31.6,24.5,03.4,0000.0,0001.33,0000.78,0000.70
2022-01-30 15:27:00,,0826.1,4.99,0.00,22.7,22.1,00.0,31.6,24.5,03.4,0000.0,0001.28,0000.76,0000.69
2022-01-30 15:28:00,,0826.1,5.01,0.00,22.7,22.1,00.0,31.6,24.5,03.4,0000.0,0001.30,0000.77,0000.70
2022-01-30 15:29:00,,0826.1,4.99,0.00,22.8,22.1,00.0,31.6,24.5,03.4,0000.0,0001.34,0000.78,0000.70
2022-01-30 15:30:00,,0826.1,5.02,0.00,22.8,22.1,00.0,31.7,24.5,03.4,0000.0,0001.36,0000.79,0000.71
2022-01-30 15:31:00,,0826.1,4.98,0.00,22.8,22.1,00.0,31.7,24.5,03.5,0000.0,0001.36,0000.78,0000.71
2022-01-30 15:32:00,,0826.1,5.02,0.00,22.7,22.1,00.0,31.7,24.5,03.7,0000.0,0001.39,0000.80,0000.72
2022-01-30 15:33:00,,0826.1,4.99,0.00,22.7,22.1,00.0,31.7,24.5,03.9,0000.0,0001.39,0000.80,0000.72
2022-01-30 15:34:00,,0826.0,4.99,0.00,22.8,22.1,00.0,31.7,24.5,04.4,0000.0,0001.13,0000.81,0000.72
2022-01-30 15:35:00,,0826.1,5.02,0.00,22.8,22.1,00.0,31.7,24.6,04.7,0000.0,0001.05,0000.82,0000.73
2022-01-30 15:36:00,,0826.1,4.99,0.00,22.8,22.1,00.0,31.7,24.5,04.7,0000.0,0001.02,0000.80,0000.72
2022-01-30 15:37:00,,0826.1,5.02,0.00,22.8,22.1,00.0,31.7,24.6,05.4,0000.0,0001.04,0000.80,0000.72
2022-01-30 15:38:00,,0826.1,4.99,0.00,22.8,22.1,00.0,31.7,24.6,06.3,0000.0,0001.31,0000.81,0000.72
2022-01-30 15:39:00,,0826.1,5.00,0.00,22.8,22.2,00.0,31.7,24.6,06.1,0000.0,0002.23,0000.82,0000.73
2022-01-30 15:40:00,,0826.1,5.00,0.00,22.8,22.2,00.0,31.7,24.6,05.2,0000.0,0002.19,0000.80,0000.72
2022-01-30 15:41:00,,0826.0,4.99,0.00,22.8,22.2,00.0,31.7,24.6,04.8,0000.0,0002.17,0000.80,0000.72
2022-01-30 15:42:00,,0826.1,5.01,0.00,22.8,22.2,00.0,31.7,24.6,05.4,0000.0,0002.15,0000.79,0000.72
2022-01-30 15:43:00,,0826.0,4.99,0.00,22.8,22.2,00.0,31.7,24.6,05.5,0000.0,0002.13,0000.78,0000.70
2022-01-30 15:44:00,,0826.1,5.01,0.00,22.8,22.2,00.0,31.7,24.6,05.5,0000.0,0002.12,0000.77,0000.70
2022-01-30 15:45:00,,0826.0,4.99,0.00,22.8,22.2,00.0,31.7,24.6,05.7,0000.0,0002.08,0000.75,0000.69
2022-01-30 15:46:00,,0826.0,5.02,0.00,22.8,22.2,00.0,31.7,24.6,05.5,0000.0,0002.06,0000.74,0000.69
2022-01-30 15:47:00,,0826.1,4.99,0.00,22.8,22.2,00.0,31.7,24.6,05.4,0000.0,0002.24,0000.75,0000.69
2022-01-30 15:48:00,,0826.1,4.99,0.00,22.8,22.2,00.0,31.7,24.7,05.1,0000.0,0002.40,0000.76,0000.70
2022-01-30 15:49:00,,0826.1,5.02,0.00,22.8,22.2,00.0,31.7,24.7,05.1,0000.0,0002.39,0000.75,0000.69
2022-01-30 15:50:00,,0826.1,4.99,0.00,22.8,22.2,00.0,31.7,24.7,05.1,0000.0,0001.28,0000.76,0000.69
2022-01-30 15:51:00,,0826.1,5.00,0.00,22.8,22.2,00.0,31.7,24.6,05.0,0000.0,0001.31,0000.77,0000.70
2022-01-30 15:52:00,,0826.1,5.01,0.00,22.8,22.2,00.0,31.7,24.6,05.0,0000.0,0001.32,0000.78,0000.70
2022-01-30 15:53:00,,0826.1,4.99,0.00,22.8,22.2,00.0,31.7,24.6,04.9,0000.0,0001.32,0000.78,0000.70
2022-01-30 15:54:00,,0826.1,5.01,0.00,22.8,22.2,00.0,31.8,24.6,04.9,0000.0,0002.28,0000.79,0000.72
2022-01-30 15:55:00,,0826.1,5.01,0.00,22.8,22.2,00.0,31.8,24.6,04.8,0000.0,0003.31,0000.83,0000.74
2022-01-30 15:56:00,,0826.0,4.99,0.00,22.8,22.2,00.0,31.8,24.6,04.8,0000.0,0003.34,0000.85,0000.75
2022-01-30 15:57:00,,0826.0,5.01,0.00,22.8,22.2,00.0,31.8,24.6,04.8,0000.0,0003.39,0000.89,0000.77
2022-01-30 15:58:00,,0826.1,4.99,0.00,22.8,22.2,00.0,31.8,24.6,05.0,0000.0,0003.27,0000.90,0000.79
2022-01-30 15:59:00,,0826.1,5.02,0.00,22.8,22.1,00.0,31.8,24.6,04.8,0000.0,0003.13,0000.92,0000.80
